Miscellaneous Local Product
Issued by NWS North Platte, NE

Home | Current Version | Previous Version | Graphics & Text | Print | Product List | Glossary On
Versions: 1 2 3 4 5 6 7 8 9 10 11 12 13 14 15 16 17 18 19 20 21 22 23 24 25 26 27 28 29 30 31 32 33 34 35 36 37 38 39 40 41 42 43 44 45 46 47 48 49 50
000
AXUS43 KLBF 060710
MISLBF


WESTERN AND NORTH CENTRAL NEBRASKA HOURLY WEATHER ROUNDUP
NATIONAL WEATHER SERVICE NORTH PLATTE NE
200 AM CDT MON JUL 06 2015

***STATIONS NOT REPORTING VARIABLES SUCH AS SKY/WEATHER OR
PRESSURE ARE PROVIDED BY THE NEBRASKA DEPARTMENT OF
ROADS...RAWS...AND APRS NETWORKS...AND ARE NOT UNDER
NATIONAL WEATHER SERVICE QUALITY CONTROL***

...OBSERVATIONS IN AND NEAR THE EASTERN PANHANDLE OF NEBRASKA...

CITY           SKY/WX    TMP DP  RH WIND       PRES   REMARKS
PINE RIDGE     LGT RAIN  61  58  90 N14       30.05R
CHADRON        HVY RAIN  61  59  93 N10       30.08R FOG
ALLIANCE       CLOUDY    62  60  93 N16       30.04R
SIDNEY         CLOUDY    64  61  90 N10       30.05R
WHITECLAY        N/A     60  59  94 E9          N/A
CRESCENT LAKE    N/A     63  61  94 N10         N/A
BIG SPRINGS      N/A     67  64  90 CALM        N/A
$$

...OBSERVATIONS IN NORTH CENTRAL NEBRASKA...

CITY           SKY/WX    TMP DP  RH WIND       PRES   REMARKS
VALENTINE      LGT RAIN  65  64  97 NE12      29.97F
THEDFORD       RAIN      66  64  94 N8        29.96F
AINSWORTH      RAIN      65  65 100 N16       29.95F
O`NEILL        RAIN      69  68  97 NW16G24   29.83S
ORD            LGT RAIN  70  67  90 NW6       29.85S
BROKEN BOW     LGT RAIN  70  67  90 NW17G30   29.89F
VALENTINE NWR    N/A     65  64  95 N14G31      N/A
SPRINGVIEW       N/A     65  64  95 NW3         N/A
HALSEY           N/A     65  65 100 NW7G20      N/A
ROSE             N/A     79  79  99 W13         N/A
NEWPORT          N/A     69  69  99 W7          N/A
CHAMBERS         N/A     68  66  93 CALM        N/A
EWING            N/A     70  68  93 N6          N/A
$$

...OBSERVATIONS IN SOUTHWEST NEBRASKA AND FAR NORTHEAST COLORADO...

CITY           SKY/WX    TMP DP  RH WIND       PRES   REMARKS
WRAY           FAIR      67  66  94 N9G18     29.96S
HOLYOKE        DRIZZLE   68  63  83 N9        29.98F
IMPERIAL       CLOUDY    69  63  81 N15G24    29.95R
OGALLALA       LGT RAIN  67  64  89 NE13      29.95R
NORTH PLATTE   LGT RAIN  68  63  84 N25G40    29.88F
MCCOOK         CLOUDY    76  66  71 N9        29.87R
LEXINGTON      CLOUDY    73  67  81 N10       29.89R
PAXTON           N/A     67  64  89 NE13        N/A
GOTHENBURG       N/A     70  62  77 N12         N/A
CALLAWAY         N/A     67  65  95 N15         N/A
$$

...NORTH PLATTE AREA...

CITY           SKY/WX    TMP DP  RH WIND       PRES   REMARKS
AIRPORT        LGT RAIN  68  63  84 N25G40    29.88F
DOWNTOWN         N/A     68  64  88 N15G26      N/A
HILLCREST        N/A     67  64  91 NE26G41     N/A
$$

...SOME WEATHER OBSERVATIONS FROM AROUND THE REGION...

CITY           SKY/WX    TMP DP  RH WIND       PRES   REMARKS
DENVER         LGT RAIN  63  59  87 N9        30.14R
LARAMIE        CLOUDY    57  55  93 N6        30.23S
CHEYENNE       CLOUDY    58  57  97 N12G22    30.18R FOG
SCOTTSBLUFF    CLOUDY    62  60  93 N12G21    30.08R
RAPID CITY     CLOUDY    60  57  89 NW14      30.10R FOG
PIERRE         LGT RAIN  64  62  93 NW12      29.95R FOG
WINNER         LGT RAIN  68  65  90 NW9       29.93F
SIOUX FALLS    RAIN      70  69  97 NW7       29.83R FOG
OMAHA          CLOUDY    80  76  87 S13       29.79F
GRAND ISLAND   CLOUDY    80  63  55 NW14      29.86R
KANSAS CITY    CLOUDY    78  69  73 S13       29.91R
WICHITA        CLOUDY    81  69  67 S13       29.89F
HAYS           CLOUDY    81  64  57 S20       29.85R
LIBERAL        PTCLDY    77  63  61 S14       29.91F
GOODLAND       CLOUDY    68  63  84 N14       29.91R
$$



USA.gov is the U.S. government's official web portal to all federal, state and local government web resources and services.